EAI17C EICK-EGGD

Flight info

Callsign EAI17C
Flight time N/A
Altitude 19000
Route VAPAL DCT BANBA N30 ADHAV P70 AGCAT Q63 BAJJA
Aircraft AT76/M-SDFGIRY/S

Departure

Time 2026-05-06 20:07
Airport Cork International Airport (EICK)

Arrival

Time N/A
Airport Bristol Airport (EGGD)
Time Latitude Longitude Altitude Speed Heading
2026-05-06 19:54 51.84802 -8.49020 499 ft 0 kts 70°
2026-05-06 20:02 51.84798 -8.49040 499 ft 4 kts 70°
2026-05-06 20:02 51.84789 -8.49081 499 ft 4 kts 69°
2026-05-06 20:02 51.84780 -8.49122 499 ft 4 kts 73°
2026-05-06 20:02 51.84771 -8.49162 499 ft 8 kts 60°
2026-05-06 20:03 51.84755 -8.49190 499 ft 11 kts
2026-05-06 20:03 51.84742 -8.49190 499 ft 8 kts 346°
2026-05-06 20:03 51.84741 -8.49189 499 ft 0 kts 346°
2026-05-06 20:05 51.84753 -8.49194 499 ft 5 kts 346°
2026-05-06 20:05 51.84793 -8.49230 491 ft 9 kts 299°
2026-05-06 20:06 51.84791 -8.49364 488 ft 14 kts 251°
2026-05-06 20:06 51.84768 -8.49468 484 ft 6 kts 238°
2026-05-06 20:06 51.84721 -8.49457 488 ft 20 kts 160°
2026-05-06 20:06 51.84379 -8.49257 476 ft 84 kts 160°
2026-05-06 20:07 51.83666 -8.48858 589 ft 122 kts 168°
2026-05-06 20:07 51.82833 -8.48527 1033 ft 130 kts 173°
2026-05-06 20:07 51.81884 -8.48297 1307 ft 153 kts 180°
2026-05-06 20:07 51.80732 -8.48281 1545 ft 168 kts 188°
2026-05-06 20:08 51.79596 -8.47848 2023 ft 172 kts 158°
2026-05-06 20:08 51.78500 -8.47116 2439 ft 171 kts 169°
2026-05-06 20:08 51.77344 -8.46661 2811 ft 172 kts 174°
2026-05-06 20:08 51.76161 -8.46333 3188 ft 173 kts 176°
2026-05-06 20:09 51.74967 -8.46033 3570 ft 174 kts 176°
2026-05-06 20:09 51.73769 -8.45710 3955 ft 174 kts 174°
2026-05-06 20:09 51.72574 -8.45364 4372 ft 174 kts 174°
2026-05-06 20:09 51.71385 -8.45003 4762 ft 174 kts 174°
2026-05-06 20:10 51.70186 -8.44641 5115 ft 175 kts 173°
2026-05-06 20:10 51.68985 -8.44262 5496 ft 176 kts 173°
2026-05-06 20:10 51.68186 -8.44019 5763 ft 176 kts 176°
2026-05-06 20:10 51.66969 -8.43704 6064 ft 178 kts 173°
2026-05-06 20:11 51.65752 -8.43297 6406 ft 179 kts 172°
2026-05-06 20:11 51.64529 -8.42879 6726 ft 180 kts 172°
2026-05-06 20:11 51.62888 -8.42340 7172 ft 182 kts 173°
2026-05-06 20:11 51.62045 -8.42076 7399 ft 183 kts 173°
2026-05-06 20:12 51.60904 -8.41182 7623 ft 190 kts 135°
2026-05-06 20:12 51.60439 -8.39211 7942 ft 195 kts 92°
2026-05-06 20:12 51.60903 -8.37186 8279 ft 197 kts 53°
2026-05-06 20:12 51.61810 -8.35544 8645 ft 196 kts 52°
2026-05-06 20:13 51.62663 -8.33852 8995 ft 198 kts 56°
2026-05-06 20:13 51.63478 -8.32061 9329 ft 199 kts 57°
2026-05-06 20:13 51.64225 -8.30181 9677 ft 200 kts 62°
2026-05-06 20:13 51.64849 -8.28171 9995 ft 201 kts 69°
2026-05-06 20:14 51.65331 -8.26041 10292 ft 202 kts 75°
2026-05-06 20:14 51.65705 -8.23847 10584 ft 204 kts 78°
2026-05-06 20:14 51.66035 -8.21607 10870 ft 205 kts 81°
2026-05-06 20:14 51.66337 -8.19351 11132 ft 207 kts 80°
2026-05-06 20:15 51.66657 -8.17079 11401 ft 210 kts 79°
2026-05-06 20:15 51.66998 -8.14802 11733 ft 209 kts 79°
2026-05-06 20:15 51.67350 -8.12549 11985 ft 212 kts 78°
2026-05-06 20:15 51.67721 -8.10234 12244 ft 214 kts 78°
2026-05-06 20:16 51.68096 -8.07892 12506 ft 217 kts 78°
2026-05-06 20:16 51.68470 -8.05529 12770 ft 218 kts 78°
2026-05-06 20:16 51.68843 -8.03144 13040 ft 220 kts 78°
2026-05-06 20:16 51.69217 -8.00752 13302 ft 221 kts 78°
2026-05-06 20:17 51.69594 -7.98350 13572 ft 221 kts 78°
2026-05-06 20:17 51.69968 -7.95934 13837 ft 222 kts 78°
2026-05-06 20:17 51.70345 -7.93521 14080 ft 223 kts 78°
2026-05-06 20:17 51.70720 -7.91091 14323 ft 224 kts 78°
2026-05-06 20:18 51.71090 -7.88687 14563 ft 224 kts 78°
2026-05-06 20:18 51.71467 -7.86247 14810 ft 224 kts 78°
2026-05-06 20:18 51.71741 -7.84465 14989 ft 224 kts 78°
2026-05-06 20:18 51.72122 -7.81995 15238 ft 224 kts 78°
2026-05-06 20:19 51.72491 -7.79590 15492 ft 223 kts 78°
2026-05-06 20:19 51.72864 -7.77163 15746 ft 222 kts 78°
2026-05-06 20:19 51.73234 -7.74742 15995 ft 222 kts 77°
2026-05-06 20:19 51.73606 -7.72324 16253 ft 222 kts 77°
2026-05-06 20:20 51.73975 -7.69902 16516 ft 222 kts 77°
2026-05-06 20:20 51.74346 -7.67480 16775 ft 222 kts 77°
2026-05-06 20:20 51.74718 -7.65027 16897 ft 228 kts 77°
2026-05-06 20:20 51.75103 -7.62498 16951 ft 236 kts 77°
2026-05-06 20:21 51.75499 -7.59887 16975 ft 243 kts 77°
2026-05-06 20:21 51.75905 -7.57201 16990 ft 249 kts 77°
2026-05-06 20:21 51.76321 -7.54456 16996 ft 255 kts 77°
2026-05-06 20:21 51.76745 -7.51651 16998 ft 259 kts 77°
2026-05-06 20:22 51.77174 -7.48802 16998 ft 262 kts 77°
2026-05-06 20:22 51.77607 -7.45928 16998 ft 265 kts 77°
2026-05-06 20:22 51.78039 -7.43055 16998 ft 267 kts 77°
2026-05-06 20:22 51.78484 -7.40092 16998 ft 269 kts 77°
2026-05-06 20:23 51.78920 -7.37182 17001 ft 271 kts 77°
2026-05-06 20:23 51.79364 -7.34216 17001 ft 272 kts 77°
2026-05-06 20:23 51.79807 -7.31238 17000 ft 273 kts 77°
2026-05-06 20:23 51.80252 -7.28251 17001 ft 274 kts 77°
2026-05-06 20:24 51.80695 -7.25261 17001 ft 274 kts 77°
2026-05-06 20:24 51.81141 -7.22263 17001 ft 274 kts 77°
2026-05-06 20:24 51.81584 -7.19260 17001 ft 275 kts 77°
2026-05-06 20:24 51.82028 -7.16252 17001 ft 275 kts 77°
2026-05-06 20:25 51.82473 -7.13239 17004 ft 276 kts 77°
2026-05-06 20:25 51.82918 -7.10219 17004 ft 276 kts 77°
2026-05-06 20:25 51.83360 -7.07204 17008 ft 276 kts 77°
2026-05-06 20:25 51.83807 -7.04193 17003 ft 275 kts 76°
2026-05-06 20:26 51.84256 -7.01195 17006 ft 274 kts 76°
2026-05-06 20:26 51.84699 -6.98198 17003 ft 274 kts 77°
2026-05-06 20:26 51.85133 -6.95199 17003 ft 274 kts 77°
2026-05-06 20:26 51.85563 -6.92200 17002 ft 274 kts 77°
2026-05-06 20:27 51.85994 -6.89203 17002 ft 273 kts 77°
2026-05-06 20:27 51.86425 -6.86210 17004 ft 273 kts 77°
2026-05-06 20:27 51.86861 -6.83221 17002 ft 273 kts 77°
2026-05-06 20:27 51.87291 -6.80271 17003 ft 273 kts 77°
2026-05-06 20:28 51.87712 -6.77281 17003 ft 273 kts 77°
2026-05-06 20:28 51.88129 -6.74287 17003 ft 273 kts 77°
2026-05-06 20:28 51.88517 -6.71618 17002 ft 272 kts 77°
2026-05-06 20:28 51.88894 -6.69085 17004 ft 272 kts 76°
2026-05-06 20:29 51.89334 -6.66100 17003 ft 272 kts 78°
2026-05-06 20:29 51.89703 -6.63154 16943 ft 263 kts 81°
2026-05-06 20:29 51.90149 -6.60278 16975 ft 264 kts 76°
2026-05-06 20:29 51.90611 -6.57388 16995 ft 266 kts 76°
2026-05-06 20:30 51.90931 -6.54485 16968 ft 259 kts 84°
2026-05-06 20:30 51.91775 -6.48872 16974 ft 253 kts 79°
2026-05-06 20:30 51.92202 -6.46112 16994 ft 252 kts 80°
2026-05-06 20:31 51.92607 -6.43349 17008 ft 252 kts 80°
2026-05-06 20:31 51.92993 -6.40610 17009 ft 253 kts 80°
2026-05-06 20:31 51.93382 -6.37822 17009 ft 254 kts 80°
2026-05-06 20:31 51.93773 -6.35017 17003 ft 256 kts 79°
2026-05-06 20:32 51.94169 -6.32191 17009 ft 258 kts 79°
2026-05-06 20:32 51.94562 -6.29342 17010 ft 260 kts 79°
2026-05-06 20:32 51.95018 -6.26508 16987 ft 260 kts 67°
2026-05-06 20:32 51.96060 -6.24147 17013 ft 256 kts 52°
2026-05-06 20:33 51.96714 -6.21495 17042 ft 259 kts 87°
2026-05-06 20:33 51.96576 -6.18589 17012 ft 261 kts 99°
2026-05-06 20:33 51.96285 -6.15668 17004 ft 264 kts 101°
2026-05-06 20:33 51.95959 -6.12735 17003 ft 265 kts 99°
2026-05-06 20:34 51.96143 -6.09798 17009 ft 265 kts 66°
2026-05-06 20:34 51.96880 -6.07635 17002 ft 259 kts 63°